Regional Weather Roundup
Issued by NWS

Home | Current Version | Previous Version | Graphics & Text | Print | Product List | Glossary On
Versions: 1 2 3 4 5 6 7 8 9 10 11 12 13 14 15 16 17 18 19 20 21 22 23 24 25 26 27
000
ASUS45 KCYS 232010
RWRWY

WYOMING REGIONAL WEATHER ROUNDUP
NATIONAL WEATHER SERVICE CHEYENNE WY
100 PM MST FRI FEB 23 2018

NOTE:  "FAIR" INDICATES FEW OR NO CLOUDS BELOW 12,000 FEET
WITH NO SIGNIFICANT WEATHER AND/OR OBSTRUCTIONS TO VISIBILITY.

WYZ001-232100-
YELLOWSTONE NATIONAL PARK

CITY           SKY/WX    TMP DP  RH WIND       PRES   REMARKS
LK YELLOWSTONE   N/A     10   2  69 CALM      29.89F
W YELLOWSTONE  NOT AVBL

$$
WYZ002>013-054>058-071-098>099-232100-
NORTHERN WYOMING

CITY           SKY/WX    TMP DP  RH WIND       PRES   REMARKS
JACKSON        FAIR      19   8  62 SE7       29.95F WCI  10
CODY           NOT AVBL
GREYBULL       FAIR       6  -1  73 E5        30.07F WCI  -3
WORLAND        FAIR      14   2  58 CALM      30.04F
SHERIDAN       FAIR      15   1  53 NW3       30.02F
BUFFALO        FAIR      16   5  62 E3        29.95F
GILLETTE       FAIR      20   8  60 S21       29.98F WCI   4
HULETT         FAIR      28   5  37 MISG      30.01F
NEWCASTLE      FAIR      18   7  62 S7        30.08F WCI   8

$$
WYZ014>020-022>026-101>103-232100-
CENTRAL WYOMING

CITY           SKY/WX    TMP DP  RH WIND       PRES   REMARKS
BIG PINEY      FAIR      21   8  57 CALM      29.89F
PINEDALE       FAIR      21  10  63 NW12      29.88F WCI   9
DUBOIS           N/A    N/A N/A N/A MISG        N/A
LANDER         FAIR      15   7  70 S5        29.95F WCI   8
RIVERTON       FAIR      12   2  64 E3        29.96F
CASPER         FAIR      14   3  61 N5        29.97F WCI   6
DOUGLAS        FAIR      12   5  73 CALM      30.00F

$$
WYZ021-027>030-104>119-232100-
SOUTHERN WYOMING

CITY           SKY/WX    TMP DP  RH WIND       PRES   REMARKS
EVANSTON       LGT SNOW  13   8  81 SE3       29.89S
ROCK SPRINGS   LGT SNOW  19  14  81 CALM      29.86F VSB 3/4
DIXON          CLOUDY    33  12  42 SW13      29.87F WCI  24
RAWLINS        PTSUNNY   23  14  68 E6        29.88F WCI  16
SARATOGA       MOCLDY    30  14  51 SE12      29.85F WCI  21
LARAMIE        FAIR      25  17  72 SE18      29.85F WCI  11
CHEYENNE       CLOUDY    24  18  77 S12G20    29.94F WCI  13
TORRINGTON     FAIR      33  15  47 SE13      30.04F WCI  24
PINE BLUFFS    MOCLDY    30  19  64 MISG      30.01F

$$




USA.gov is the U.S. government's official web portal to all federal, state and local government web resources and services.